AEROCUBE 10A (JIMSAT) (44485 NORAD) Tracking and Keplerian Element Data

This shows tracking and keplerian element data for the satellite.

Feedback or suggestion? Click here.




ElementValue
Catalog44485
NameAEROCUBE 10A (JIMSAT)
Epoch Orbit443
Epoch Day248.21619349
Epoch Year2019
RAAN328.9288
Inclination51.6444
Eccentricity0.0010269
Argument of Perigee6.8863
Mean Anonmoly353.2257
Mean Motion15.29289843
Decay Rate1.145E-05
L11 44485U 19022D 19248.21619349 .00001145 00000-0 52225-4 0 9999
L22 44485 51.6444 328.9288 0010269 6.8863 353.2257 15.29289843 4439

Live tracking and technical data element details for AEROCUBE 10A (JIMSAT) (NORAD 44485). AEROCUBE 10A (JIMSAT) can be tracked NOW for your location showing map with azimuth and elevation plus other details from your city location.

Track the satellite on the map from your city or location and see movement details for azimuth, elevation, latitude, longitude, range, height, and movement on the map or in text.







IsCatalogInMostPopularTable: catalog: 44485, numindb: 29
Update: records affected: 1



GetName: 44485 AEROCUBE 10A (JIMSAT)

Hit Count: updated at: Thu, 05 Dec 2019 18:06:35 GMT